Satellite-Ground Cal/Val Site Overpasses Predictions

Prediction of Satellite NPP Overpassing Cal/Val Site: Antarctic Dome C

Ground Cal/Val Site Location: Latitude: -75.10, Longitude: 123.35; Satellite-Ground Site NADIR distance within 100 km.

Table of predicted overpasses for the next 14.0 days since TLE Epoch: 1/31/2020
Interval Starting Time Ending Time Minimum Distance Time Minimum Distance (km)
1 02/01/2020 15:07:02 02/01/2020 15:07:12 02/01/2020 15:07:07 93.88
2 02/02/2020 14:48:04 02/02/2020 14:48:32 02/02/2020 14:48:18 17.18
3 02/04/2020 07:30:54 02/04/2020 07:31:23 02/04/2020 07:31:08 1.64
4 02/07/2020 14:54:23 02/07/2020 14:54:51 02/07/2020 14:54:37 19.45
5 02/08/2020 14:35:41 02/08/2020 14:35:55 02/08/2020 14:35:48 87.40
6 02/09/2020 07:37:13 02/09/2020 07:37:41 02/09/2020 07:37:27 35.02
7 02/10/2020 07:18:28 02/10/2020 07:18:47 02/10/2020 07:18:37 75.01
8 02/12/2020 15:00:43 02/12/2020 15:01:07 02/12/2020 15:00:55 56.77
9 02/13/2020 14:41:54 02/13/2020 14:42:19 02/13/2020 14:42:06 52.25


NCC Satellite Cal/Val Overpasses Prediction Service
